Location: Newark
(52.3500°N, 175.9667°E)
Time: 22:26:17
(UTC+00:00)

Transit 4A - Pass Details

Date: 25 April 2021
Orbit: 871 x 974 km, 66.8° (Epoch: 16 May)

Event Time Altitude Azimuth Distance (km) Brightness Sun altitude
Rises 17:22:22 0° 318° (NW) 3,541 10.7 2.9°
Reaches altitude 10° 17:25:05 10° 326° (NW) 2,582 10.1 3.3°
Maximum altitude 17:30:41 40° 36° (NE) 1,277 9.4 4.1°
Drops below altitude 10° 17:36:10 10° 106° (ESE) 2,527 11.4 4.9°
Sets 17:38:47 0° 113° (ESE) 3,457 11.8 5.3°
